Location: Stendal
(52.5994°N, 11.8400°E)
Time: 03:35:19
(UTC+02:00)

FENGYUN 1C DEB - Visible Passes

Search period start: 15 August 2022 00:00
Search period end: 25 August 2022 00:00
Orbit: 742 x 962 km, 98.4° (Epoch: 12 August)

Date Brightness Start Highest point End Pass type
(mag) Time Alt. Az. Time Alt. Az. Time Alt. Az.
19 Aug ? 21:43:46 10° WSW 21:46:10 12° W 21:48:33 10° WNW visible
20 Aug ? 21:31:13 10° WSW 21:34:32 15° W 21:37:49 10° NW visible
21 Aug ? 21:18:57 10° SW 21:22:56 18° W 21:26:50 10° NW visible
22 Aug ? 21:06:52 10° SW 21:11:20 22° W 21:15:42 10° NW visible
23 Aug ? 20:54:55 10° SSW 20:59:46 26° W 21:04:29 10° NW visible
